EW8292 Weather Reports


time (UTC)temp
C
wind
direction
speed
KPH
gust
KPH
rain 1hr
cm
rain 24hr
cm
rain mn
cm
humidity
%
barometer
mb
20260504201532 24 21 0.0 9.7 0.00 0.00 0.00 43 1009.9
20260504201051 24 54 0.0 4.8 0.00 0.00 0.00 43 1009.9
20260504200533 24 50 0.0 4.8 0.00 0.00 0.00 44 1010.0
20260504200013 24 310 0.0 3.2 0.00 0.00 0.00 43 1009.9
20260504195544 24 308 0.0 3.2 0.00 0.00 0.00 43 1010.0
20260504195023 24 321 0.0 11.3 0.00 0.00 0.00 43 1010.1
20260504194553 23 44 0.0 11.3 0.00 0.00 0.00 42 1010.2
20260504194011 24 46 0.0 12.9 0.00 0.00 0.00 42 1010.3
20260504193547 24 271 0.0 12.9 0.00 0.00 0.00 43 1010.5
20260504193016 24 55 0.0 1.6 0.00 0.00 0.00 42 1010.6
20260504192547 24 332 0.0 3.2 0.00 0.00 0.00 43 1010.6
20260504192007 23 45 0.0 9.7 0.00 0.00 0.00 42 1010.7
20260504191546 23 58 0.0 9.7 0.00 0.00 0.00 44 1010.8
20260504191009 24 319 0.0 3.2 0.00 0.00 0.00 44 1010.9
20260504190531 24 162 0.0 1.6 0.00 0.00 0.00 43 1011.0
20260504190007 24 337 0.0 4.8 0.00 0.00 0.00 44 1011.0
20260504185548 23 70 0.0 11.3 0.00 0.00 0.00 44 1011.1
20260504185058 23 16 0.0 11.3 0.00 0.00 0.00 43 1011.2
20260504185002 23 20 1.6 11.3 0.00 0.00 0.00 44 1011.2
20260504184553 23 264 0.0 11.3 0.00 0.00 0.00 44 1011.2
20260504184100 23 63 0.0 14.5 0.00 0.00 0.00 44 1011.3
20260504184003 23 303 0.0 14.5 0.00 0.00 0.00 43 1011.3
20260504183527 23 314 0.0 14.5 0.00 0.00 0.00 43 1011.5
20260504183012 23 16 0.0 6.4 0.00 0.00 0.00 44 1011.6
20260504182548 23 319 0.0 6.4 0.00 0.00 0.00 45 1011.6
20260504182007 23 12 0.0 8.0 0.00 0.00 0.00 44 1011.7
20260504181532 23 103 0.0 8.0 0.00 0.00 0.00 44 1011.8
20260504181007 23 82 0.0 6.4 0.00 0.00 0.00 44 1011.8
20260504180528 23 68 0.0 6.4 0.00 0.00 0.00 43 1011.8
20260504180010 23 53 0.0 9.7 0.00 0.00 0.00 43 1011.9
20260504175536 23 27 0.0 9.7 0.00 0.00 0.00 46 1012.0
20260504175019 22 23 0.0 3.2 0.00 0.00 0.00 44 1012.0
20260504174534 22 288 0.0 3.2 0.00 0.00 0.00 44 1012.1
20260504174015 22 95 0.0 11.3 0.00 0.00 0.00 43 1012.2
20260504173538 22 330 0.0 11.3 0.00 0.00 0.00 43 1012.2
20260504173019 22 323 0.0 4.8 0.00 0.00 0.00 43 1012.3
20260504172538 22 46 0.0 9.7 0.00 0.00 0.00 43 1012.3
20260504172017 22 54 0.0 9.7 0.00 0.00 0.00 42 1012.4
20260504171541 22 18 0.0 19.3 0.00 0.00 0.00 44 1012.4
20260504171059 22 15 0.0 19.3 0.00 0.00 0.00 45 1012.5
20260504171007 22 348 0.0 19.3 0.00 0.00 0.00 43 1012.5
20260504170543 22 90 0.0 3.2 0.00 0.00 0.00 45 1012.5
20260504151056 20 79 0.0 0.0 0.00 0.00 0.00 46 1013.9
20260504150524 19 20 0.0 0.0 0.00 0.00 0.00 45 1013.9
20260504141042 17 334 0.0 1.6 0.00 0.00 0.00 53 1014.0
20260504140520 17 57 0.0 0.0 0.00 0.00 0.00 57 1014.1
20260504130512 13 314 0.0 1.6 0.00 0.00 0.00 65 1014.6
20260504110518 8 33 0.0 0.0 0.00 0.00 0.00 80 1015.1
20260504100531 9 65 0.0 0.0 0.00 0.00 0.00 75 1014.9
20260504081538 8 38 0.0 0.0 0.00 0.00 0.00 76 1015.3
20260504081055 8 38 0.0 0.0 0.00 0.00 0.00 76 1015.4
20260504080542 8 38 0.0 0.0 0.00 0.00 0.00 75 1015.5
20260504050533 7 62 0.0 0.0 0.00 0.00 0.00 71 1015.8
20260504045517 7 62 0.0 0.0 0.00 0.00 0.00 69 1015.7
20260504045055 7 62 0.0 0.0 0.00 0.00 0.00 69 1015.7
20260504044519 7 63 0.0 0.0 0.00 0.00 0.00 67 1015.7
20260504044051 8 62 0.0 0.0 0.00 0.00 0.00 66 1015.6
20260504043537 8 62 0.0 0.0 0.00 0.00 0.00 66 1015.7
20260504043009 8 62 0.0 0.0 0.00 0.00 0.00 67 1015.7
20260504042532 8 62 0.0 0.0 0.00 0.00 0.00 65 1015.7
20260504042051 8 62 0.0 0.0 0.00 0.00 0.00 65 1015.7
20260504041533 8 62 0.0 0.0 0.00 0.00 0.00 64 1015.7
20260504041053 8 62 0.0 0.0 0.00 0.00 0.00 65 1015.7
20260504040516 8 67 0.0 0.0 0.00 0.00 0.00 65 1015.6
20260504040051 8 77 0.0 0.0 0.00 0.00 0.00 66 1015.7
20260504035532 7 10 0.0 0.0 0.00 0.00 0.00 68 1015.7
20260504035049 7 68 0.0 0.0 0.00 0.00 0.00 69 1015.6
20260504034518 7 33 0.0 0.0 0.00 0.00 0.00 71 1015.6
20260504034049 7 33 0.0 0.0 0.00 0.00 0.00 71 1015.6
20260504033515 7 33 0.0 0.0 0.00 0.00 0.00 71 1015.5
20260504033059 6 22 0.0 0.0 0.00 0.00 0.00 73 1015.4
20260504032517 6 22 0.0 0.0 0.00 0.00 0.00 74 1015.4
20260504032039 6 22 0.0 0.0 0.00 0.00 0.00 75 1015.4
20260504031523 6 22 0.0 0.0 0.00 0.00 0.00 78 1015.3
20260504031101 6 22 0.0 0.0 0.00 0.00 0.00 77 1015.2
20260504030523 6 22 0.0 0.0 0.00 0.00 0.00 77 1015.2
20260504030115 6 22 0.0 0.0 0.00 0.00 0.00 75 1015.2
20260504030001 6 22 0.0 0.0 0.00 0.00 0.00 75 1015.2
20260504025529 6 22 0.0 0.0 0.00 0.00 0.00 74 1015.1
20260504025045 6 22 0.0 0.0 0.00 0.00 0.00 74 1015.1
20260504024512 6 22 0.0 0.0 0.00 0.00 0.00 74 1015.1
20260504024051 6 22 0.0 0.0 0.00 0.00 0.00 75 1015.1
20260504023515 6 23 0.0 0.0 0.00 0.00 0.00 74 1015.1
20260504023051 6 22 0.0 0.0 0.00 0.00 0.00 74 1015.1
20260504022516 6 23 0.0 0.0 0.00 0.00 0.00 74 1015.1
20260504022035 6 22 0.0 0.0 0.00 0.00 0.00 72 1015.1
20260504021519 6 22 0.0 0.0 0.00 0.00 0.00 71 1015.1
20260504021054 6 22 0.0 0.0 0.00 0.00 0.00 72 1015.1
20260504020537 6 22 0.0 0.0 0.00 0.00 0.00 71 1015.1
20260504020015 6 22 0.0 0.0 0.00 0.00 0.00 71 1015.1
20260504015539 6 22 0.0 0.0 0.00 0.00 0.00 73 1015.0
20260504015057 6 22 0.0 0.0 0.00 0.00 0.00 72 1014.9
20260504015001 6 22 0.0 0.0 0.00 0.00 0.00 72 1014.9
20260504014544 6 22 0.0 0.0 0.00 0.00 0.00 72 1014.9
20260504014013 7 23 0.0 0.0 0.00 0.00 0.00 72 1014.9
20260504013545 7 22 0.0 0.0 0.00 0.00 0.00 72 1015.0
20260504013009 7 22 0.0 0.0 0.00 0.00 0.00 71 1014.9
20260504012531 7 22 0.0 0.0 0.00 0.00 0.00 70 1014.9
20260504012015 7 22 0.0 0.0 0.00 0.00 0.00 69 1014.8
20260504011535 7 22 0.0 0.0 0.00 0.00 0.00 69 1014.8
20260504011016 7 22 0.0 0.0 0.00 0.00 0.00 67 1014.8
20260504010538 7 22 0.0 0.0 0.00 0.00 0.00 67 1014.7
20260504010057 8 22 0.0 0.0 0.00 0.00 0.00 67 1014.7
20260504005540 8 22 0.0 0.0 0.00 0.00 0.00 67 1014.8
20260504005057 8 23 0.0 0.0 0.00 0.00 0.00 65 1014.7
20260504004537 8 22 0.0 0.0 0.00 0.00 0.00 62 1014.6
20260504004021 8 22 0.0 0.0 0.00 0.00 0.00 62 1014.5
20260504003544 8 22 0.0 0.0 0.00 0.00 0.00 62 1014.5
20260504003036 9 22 0.0 0.0 0.00 0.00 0.00 62 1014.5
20260504002505 9 22 0.0 0.0 0.00 0.00 0.00 61 1014.4
20260504002031 10 22 0.0 0.0 0.00 0.00 0.00 60 1014.4
20260504001551 10 22 0.0 0.0 0.00 0.00 0.00 60 1014.4
20260504001033 10 22 0.0 0.0 0.00 0.00 0.00 58 1014.3
20260504000550 11 22 0.0 0.0 0.00 0.00 0.00 56 1014.3
20260504000015 11 22 0.0 0.0 0.00 0.00 0.00 53 1014.2
20260503235553 11 22 0.0 0.0 0.00 0.00 0.00 52 1014.2
20260503235019 12 22 0.0 0.0 0.00 0.00 0.00 51 1014.2
20260503234555 12 23 0.0 0.0 0.00 0.00 0.00 50 1014.1
20260503234029 13 22 0.0 0.0 0.00 0.00 0.00 49 1014.1
20260503233550 13 22 0.0 0.0 0.00 0.00 0.00 48 1014.1
20260503233015 13 17 0.0 0.0 0.00 0.00 0.00 46 1014.0
20260503232555 14 16 0.0 0.0 0.00 0.00 0.00 45 1014.0
20260503232021 14 175 0.0 0.0 0.00 0.00 0.00 45 1013.8
20260503231557 14 184 0.0 0.0 0.00 0.00 0.00 45 1013.8
20260503231031 15 129 0.0 0.0 0.00 0.00 0.00 44 1013.7
20260503230547 15 129 0.0 0.0 0.00 0.00 0.00 43 1013.8
20260503230031 15 129 0.0 1.6 0.00 0.00 0.00 42 1013.8
20260503225550 15 19 0.0 1.6 0.00 0.00 0.00 42 1013.8
20260503225031 15 62 0.0 0.0 0.00 0.00 0.00 41 1013.9
20260503224524 15 98 0.0 1.6 0.00 0.00 0.00 41 1013.9
20260503224035 15 101 0.0 1.6 0.00 0.00 0.00 41 1014.0
20260503223516 15 63 0.0 1.6 0.00 0.00 0.00 41 1013.9
20260503223037 15 41 0.0 1.6 0.00 0.00 0.00 40 1014.0
20260503222508 15 59 0.0 1.6 0.00 0.00 0.00 41 1014.0
20260503222042 15 41 0.0 12.9 0.00 0.00 0.00 41 1013.9
20260503221511 15 155 0.0 12.9 0.00 0.00 0.00 41 1013.9
20260503221056 15 120 0.0 4.8 0.00 0.00 0.00 40 1014.0
20260503220513 15 101 0.0 14.5 0.00 0.00 0.00 40 1014.0
20260503220035 15 25 1.6 14.5 0.00 0.00 0.00 39 1013.9
20260503215517 15 120 0.0 1.6 0.00 0.00 0.00 40 1014.1
20260503215038 15 56 0.0 3.2 0.00 0.00 0.00 40 1014.1
20260503214518 15 188 0.0 11.3 0.00 0.00 0.00 40 1014.1
20260503214044 15 131 0.0 11.3 0.00 0.00 0.00 39 1014.1
20260503213515 15 95 0.0 8.0 0.00 0.00 0.00 41 1014.0
20260503213051 15 127 0.0 3.2 0.00 0.00 0.00 39 1014.1
20260503212517 16 122 0.0 20.9 0.00 0.00 0.00 40 1014.0
20260503212054 16 30 1.6 20.9 0.00 0.00 0.00 39 1013.9
20260503211518 16 69 0.0 1.6 0.00 0.00 0.00 40 1013.8
20260503211038 16 27 0.0 1.6 0.00 0.00 0.00 40 1013.9
20260503210516 16 108 0.0 1.6 0.00 0.00 0.00 40 1014.0
20260503210039 16 100 0.0 1.6 0.00 0.00 0.00 41 1014.0
20260503205519 16 123 0.0 6.4 0.00 0.00 0.00 40 1014.1
20260503205042 16 115 0.0 6.4 0.00 0.00 0.00 40 1014.0
20260503204521 16 67 0.0 11.3 0.00 0.00 0.00 41 1014.1
20260503204044 16 171 0.0 3.2 0.00 0.00 0.00 40 1014.0
20260503203534 16 96 0.0 3.2 0.00 0.00 0.00 39 1014.1
20260503203050 16 122 0.0 11.3 0.00 0.00 0.00 40 1014.2
20260503202525 16 68 0.0 11.3 0.00 0.00 0.00 40 1014.2
20260503202006 16 141 0.0 8.0 0.00 0.00 0.00 41 1014.4